Weather History for KHSP - March, 2013

Change the Weather History Date:

Sunday, March 3, 2013

  Actual Average Record
Temperature  
Mean Temperature 16 °F -  
Max Temperature 19 °F 39 °F 55 °F (2004)
Min Temperature 14 °F 24 °F 0 °F (2009)
Degree Days  
Heating Degree Days 48    
Moisture  
Dew Point 12 °F    
Average Humidity 81    
Maximum Humidity 93    
Minimum Humidity 73    
Precipitation  
Precipitation 0.00 in - - ()
Sea Level Pressure  
Sea Level Pressure 29.76 in    
Wind  
Wind Speed 19 mph (WNW)    
Max Wind Speed 28 mph    
Max Gust Speed 37 mph    
Visibility 10 miles    
Events Snow    
Averages and records for this station are not official NWS values.
T = Trace of Precipitation, MM = Missing Value Source: NWS Daily Summary

Daily Weather History Graph

Daily Weather History Graph

Search for Another Location

Airport or City:

Trip Planner

Search our weather history database for the weather conditions in past years. The results will help you decide how hot, cold, wet, or windy it might be!

Date:

Astronomy

Mar. 03, 2013 Rise Set
Actual Time 6:47 AM EST 6:15 PM EST
Civil Twilight 6:21 AM EST 6:41 PM EST
Nautical Twilight 5:51 AM EST 7:11 PM EST
Astronomical Twilight 5:20 AM EST 7:42 PM EST
Moon No Moon Rise 10:08 AM EST (3/3)
Length of Visible Light 12h 19m
Length of Day
11h 27m
Waning Gibbous, 64% of the Moon is Illuminated
Mar 3
Waning Gibbous
Mar 4
Last Quarter
Mar 11
New
Mar 19
First Quarter
Mar 27
Full

Hourly Weather History & Observations

Time (EST) Temp. Windchill Dew Point Humidity Pressure Visibility Wind Dir Wind Speed Gust Speed Precip Events Conditions
12:15 AM 17.6 °F 0.5 °F 15.8 °F 93% 29.75 in 10.0 mi WNW 21.9 mph 28.8 mph N/A Snow Light Snow
12:35 AM 17.6 °F 1.7 °F 15.8 °F 93% 29.75 in 10.0 mi WNW 18.4 mph 25.3 mph N/A Snow Light Snow
12:55 AM 17.6 °F 1.7 °F 15.8 °F 93% 29.75 in 10.0 mi WNW 18.4 mph 26.5 mph N/A Snow Light Snow
1:15 AM 17.6 °F 3.2 °F 15.8 °F 93% 29.76 in 10.0 mi WNW 15.0 mph 21.9 mph N/A Snow Light Snow
1:35 AM 17.6 °F 0.9 °F 15.8 °F 93% 29.75 in 7.0 mi WNW 20.7 mph 28.8 mph N/A Snow Light Snow
1:55 AM 17.6 °F 1.3 °F 14.0 °F 86% 29.75 in 10.0 mi WNW 19.6 mph 28.8 mph N/A Snow Light Snow
2:15 AM 15.8 °F -1.1 °F 12.2 °F 86% 29.75 in 10.0 mi WNW 19.6 mph 28.8 mph N/A   Overcast
2:35 AM 15.8 °F -1.9 °F 12.2 °F 86% 29.75 in 10.0 mi WNW 21.9 mph 29.9 mph N/A Snow Light Snow
2:55 AM 15.8 °F -1.5 °F 12.2 °F 86% 29.74 in 10.0 mi WNW 20.7 mph 27.6 mph N/A Snow Light Snow
3:15 AM 15.8 °F -0.6 °F 12.2 °F 86% 29.74 in 10.0 mi WNW 18.4 mph 27.6 mph N/A Snow Light Snow
3:35 AM 15.8 °F -0.2 °F 12.2 °F 86% 29.73 in 10.0 mi WNW 17.3 mph 26.5 mph N/A   Overcast
3:55 AM 15.8 °F -0.2 °F 12.2 °F 86% 29.73 in 10.0 mi WNW 17.3 mph 26.5 mph N/A Snow Light Snow
4:15 AM 15.8 °F -0.6 °F 12.2 °F 86% 29.73 in 10.0 mi WNW 18.4 mph 24.2 mph N/A Snow Light Snow
4:35 AM 15.8 °F -2.3 °F 12.2 °F 86% 29.73 in 10.0 mi WNW 23.0 mph 28.8 mph N/A Snow Light Snow
4:55 AM 15.8 °F -0.6 °F 12.2 °F 86% 29.73 in 10.0 mi WNW 18.4 mph 24.2 mph N/A Snow Light Snow
5:35 AM 15.8 °F -0.6 °F 12.2 °F 86% 29.73 in 10.0 mi WNW 18.4 mph 25.3 mph N/A Snow Light Snow
5:55 AM 15.8 °F -1.1 °F 12.2 °F 86% 29.74 in 10.0 mi WNW 19.6 mph 25.3 mph N/A Snow Light Snow
6:15 AM 15.8 °F -0.6 °F 10.4 °F 79% 29.73 in 10.0 mi WNW 18.4 mph 29.9 mph N/A Snow Light Snow
6:35 AM 15.8 °F -1.1 °F 12.2 °F 86% 29.74 in 10.0 mi WNW 19.6 mph 26.5 mph N/A Snow Light Snow
7:15 AM 15.8 °F -0.6 °F 10.4 °F 79% 29.74 in 10.0 mi WNW 18.4 mph 28.8 mph N/A Snow Light Snow
7:35 AM 15.8 °F -0.2 °F 12.2 °F 86% 29.75 in 10.0 mi WNW 17.3 mph 25.3 mph N/A Snow Light Snow
7:55 AM 15.8 °F 0.9 °F 12.2 °F 86% 29.76 in 7.0 mi WNW 15.0 mph 20.7 mph N/A Snow Light Snow
8:15 AM 15.8 °F 0.9 °F 12.2 °F 86% 29.76 in 7.0 mi WNW 15.0 mph 23.0 mph N/A Snow Light Snow
8:35 AM 15.8 °F -1.1 °F 12.2 °F 86% 29.76 in 10.0 mi WNW 19.6 mph 24.2 mph N/A Snow Light Snow
8:55 AM 17.6 °F 1.7 °F 12.2 °F 79% 29.77 in 10.0 mi WNW 18.4 mph 27.6 mph N/A   Overcast
9:15 AM 17.6 °F 3.7 °F 12.2 °F 79% 29.77 in 10.0 mi WNW 13.8 mph 26.5 mph N/A   Overcast
9:35 AM 17.6 °F 2.2 °F 12.2 °F 79% 29.76 in 10.0 mi West 17.3 mph 31.1 mph N/A Snow Light Snow
9:55 AM 17.6 °F 1.7 °F 12.2 °F 79% 29.77 in 10.0 mi West 18.4 mph 26.5 mph N/A   Overcast
10:15 AM 17.6 °F 3.2 °F 12.2 °F 79% 29.77 in 10.0 mi WNW 15.0 mph 23.0 mph N/A Snow Light Snow
10:35 AM 17.6 °F 2.2 °F 12.2 °F 79% 29.76 in 10.0 mi WNW 17.3 mph 25.3 mph N/A Snow Light Snow
10:55 AM 17.6 °F 3.2 °F 12.2 °F 79% 29.77 in 7.0 mi WNW 15.0 mph 19.6 mph N/A Snow Light Snow
11:15 AM 17.6 °F 4.3 °F 12.2 °F 79% 29.77 in 10.0 mi WNW 12.7 mph 20.7 mph N/A Snow Light Snow
11:35 AM 17.6 °F 2.7 °F 12.2 °F 79% 29.77 in 10.0 mi WNW 16.1 mph 24.2 mph N/A   Overcast
11:55 AM 19.4 °F 5.0 °F 12.2 °F 74% 29.77 in 10.0 mi WNW 16.1 mph 25.3 mph N/A   Overcast
12:15 PM 19.4 °F 6.0 °F 12.2 °F 74% 29.76 in 10.0 mi WNW 13.8 mph 19.6 mph N/A Snow Light Snow
12:35 PM 19.4 °F 6.0 °F 12.2 °F 74% 29.76 in 10.0 mi WNW 13.8 mph 20.7 mph N/A   Overcast
12:55 PM 19.4 °F 4.1 °F 14.0 °F 80% 29.76 in 10.0 mi WNW 18.4 mph 21.9 mph N/A Snow Light Snow
1:15 PM 19.4 °F 6.6 °F 14.0 °F 80% 29.75 in 10.0 mi WNW 12.7 mph 21.9 mph N/A Snow Light Snow
1:35 PM 19.4 °F 7.2 °F 14.0 °F 80% 29.74 in 10.0 mi WNW 11.5 mph - N/A   Overcast
1:55 PM 19.4 °F 3.6 °F 12.2 °F 74% 29.74 in 10.0 mi WNW 19.6 mph 26.5 mph N/A   Overcast
2:15 PM 19.4 °F 3.6 °F 12.2 °F 74% 29.75 in 10.0 mi WNW 19.6 mph 24.2 mph N/A   Overcast
2:55 PM 19.4 °F 4.5 °F 14.0 °F 80% 29.74 in 10.0 mi West 17.3 mph 25.3 mph N/A Snow Light Snow
3:15 PM 19.4 °F 4.1 °F 12.2 °F 74% 29.74 in 10.0 mi WNW 18.4 mph 24.2 mph N/A   Overcast
3:35 PM 19.4 °F 3.6 °F 12.2 °F 74% 29.75 in 10.0 mi WNW 19.6 mph 26.5 mph N/A   Overcast
3:55 PM 19.4 °F 3.6 °F 12.2 °F 74% 29.75 in 10.0 mi WNW 19.6 mph 24.2 mph N/A   Overcast
4:15 PM 17.6 °F 3.7 °F 12.2 °F 79% 29.75 in 10.0 mi WNW 13.8 mph 28.8 mph N/A   Overcast
4:35 PM 17.6 °F 1.7 °F 12.2 °F 79% 29.75 in 10.0 mi WNW 18.4 mph 31.1 mph N/A   Overcast
4:55 PM 17.6 °F 3.2 °F 12.2 °F 79% 29.76 in 10.0 mi WNW 15.0 mph 26.5 mph N/A Snow Light Snow
5:15 PM 17.6 °F 1.3 °F 10.4 °F 73% 29.76 in 10.0 mi WNW 19.6 mph 27.6 mph N/A   Overcast
5:35 PM 17.6 °F 2.2 °F 10.4 °F 73% 29.76 in 10.0 mi NW 17.3 mph 26.5 mph N/A   Overcast
5:55 PM 17.6 °F 0.9 °F 10.4 °F 73% 29.77 in 10.0 mi WNW 20.7 mph 34.5 mph N/A Snow Light Snow
6:15 PM 15.8 °F -0.6 °F 10.4 °F 79% 29.77 in 10.0 mi WNW 18.4 mph 27.6 mph N/A Snow Light Snow
6:35 PM 15.8 °F -0.2 °F 12.2 °F 86% 29.77 in 7.0 mi WNW 17.3 mph 29.9 mph N/A Snow Light Snow
6:55 PM 15.8 °F -1.1 °F 10.4 °F 79% 29.77 in 10.0 mi WNW 19.6 mph 31.1 mph N/A   Overcast
7:15 PM 15.8 °F -3.7 °F 10.4 °F 79% 29.77 in 10.0 mi WNW 27.6 mph 34.5 mph N/A   Overcast
7:35 PM 15.8 °F -2.3 °F 10.4 °F 79% 29.77 in 10.0 mi WNW 23.0 mph 33.4 mph N/A   Overcast
7:55 PM 15.8 °F -1.5 °F 10.4 °F 79% 29.78 in 10.0 mi WNW 20.7 mph 33.4 mph N/A   Overcast
8:15 PM 15.8 °F -0.2 °F 10.4 °F 79% 29.79 in 10.0 mi WNW 17.3 mph 27.6 mph N/A   Overcast
8:35 PM 15.8 °F -1.5 °F 10.4 °F 79% 29.79 in 10.0 mi WNW 20.7 mph 26.5 mph N/A   Overcast
8:55 PM 15.8 °F -0.6 °F 10.4 °F 79% 29.79 in 10.0 mi WNW 18.4 mph 34.5 mph N/A Snow Light Snow
9:15 PM 15.8 °F -0.6 °F 8.6 °F 73% 29.80 in 10.0 mi WNW 18.4 mph 28.8 mph N/A Snow Light Snow
9:35 PM 14.0 °F -5.8 °F 8.6 °F 79% 29.80 in 10.0 mi WNW 26.5 mph 36.8 mph N/A   Overcast
9:55 PM 14.0 °F -3.9 °F 8.6 °F 79% 29.80 in 10.0 mi WNW 20.7 mph 35.7 mph N/A   Overcast
10:15 PM 14.0 °F -3.0 °F 8.6 °F 79% 29.80 in 10.0 mi WNW 18.4 mph 29.9 mph N/A   Overcast
10:35 PM 14.0 °F -3.4 °F 6.8 °F 73% 29.80 in 10.0 mi WNW 19.6 mph 28.8 mph N/A   Overcast
10:55 PM 14.0 °F -3.4 °F 6.8 °F 73% 29.79 in 10.0 mi WNW 19.6 mph 31.1 mph N/A   Overcast
11:15 PM 14.0 °F -3.9 °F 8.6 °F 79% 29.80 in 10.0 mi WNW 20.7 mph 33.4 mph N/A Snow Light Snow
11:35 PM 14.0 °F -4.7 °F 8.6 °F 79% 29.80 in 10.0 mi WNW 23.0 mph 34.5 mph N/A   Overcast
11:55 PM 14.0 °F -2.5 °F 8.6 °F 79% 29.80 in 10.0 mi WNW 17.3 mph 26.5 mph N/A   Overcast